Regional Weather Roundup
Issued by NWS

Home | Current Version | Previous Version | Text Only | Print | Product List | Glossary Off
Versions: 1 2 3 4 5 6 7 8 9 10 11 12 13 14 15 16 17 18 19 20 21 22 23 24 25 26 27 28 29 30 31 32 33 34 35 36 37 38 39 40 41 42 43 44 45 46 47 48 49 50

000
ASUS43 KLMK 311502
RWRKY
KENTUCKY REGIONAL WEATHER ROUNDUP
NATIONAL WEATHER SERVICE LOUISVILLE KY
1100 AM EDT THU JUL 31 2014

NOTE "FAIR" INDICATES FEW OR NO CLOUDS BELOW 12,000 FEET
WITH NO SIGNIFICANT WEATHER AND/OR OBSTRUCTIONS TO VISIBILITY.

KYZ001>023-026-027-061>063-070>075-311600-
WESTERN AND SOUTH CENTRAL KENTUCKY

CITY           SKY/WX    TMP DP  RH WIND       PRES   REMARKS
PADUCAH        MOSUNNY   78  61  55 CALM      30.10F
HENDERSON      SUNNY     75  61  60 CALM      30.10S
OWENSBORO      SUNNY     76  61  59 CALM      30.12S
HOPKINSVILLE   SUNNY     78  58  50 SE5       30.11F
BOWLING GREEN  SUNNY     77  59  53 NE5       30.12S
GLASGOW        SUNNY     74  61  61 E3        30.12F
$$

KYZ024-025-028>034-038-045-046-053-311600-
NORTH CENTRAL KENTUCKY

CITY           SKY/WX    TMP DP  RH WIND       PRES   REMARKS
LOUISVILLE/SDF MOSUNNY   79  62  56 CALM      30.11R
LOUISVILLE/LOU SUNNY     77  62  59 CALM      30.11S
FORT KNOX      SUNNY     75  64  69 VRB2      30.11S
$$

KYZ035>037-039>044-047>052-055>060-089>105-311600-
NORTHEAST KENTUCKY

CITY           SKY/WX    TMP DP  RH WIND       PRES   REMARKS
LEXINGTON      SUNNY     77  61  57 VRB3      30.13S
COVINGTON      SUNNY     76  61  59 W6        30.11
FRANKFORT      SUNNY     75  60  59 CALM      30.12R
$$

KYZ054-064>069-076>088-106>120-311600-
SOUTHEAST KENTUCKY

CITY           SKY/WX    TMP DP  RH WIND       PRES   REMARKS
JACKSON        SUNNY     72  61  68 CALM      30.15S
LONDON         PTSUNNY   74  60  61 MISG      30.15R
SOMERSET       SUNNY     72  63  73 CALM      30.15R
MIDDLESBORO    PTSUNNY   66  61  86 CALM      30.16S
MONTICELLO     MOSUNNY   76  64  66 CALM      30.15S
$$



USA.gov is the U.S. government's official web portal to all federal, state and local government web resources and services.